Location: Drignac
(45.1667°N, 2.0333°E)
Time: 17:58:31
(UTC+00:00)

Resurs 1-3 - Pass Details

Date: 29 March 2020
Orbit: 630 x 632 km, 97.9° (Epoch: 24 May)

Event Time Altitude Azimuth Distance (km) Brightness Sun altitude
Exits shadow 19:44:44 24° 140° (SE) 1,297 4.7 -15.9°
Maximum altitude 19:47:08 55° 72° (ENE) 766 3.7 -16.2°
Drops below altitude 10° 19:51:26 10° 356° (N) 2,024 6.6 -16.9°
Sets 19:53:40 0° 352° (N) 2,937 7.5 -17.3°
